Akron, CO

11:42 AM MDT on October 19, 2017 (GMT -0600)
Akron-Washington County

Weather History for KAKO - September, 2011

Change the Weather History Date:

Friday, September 30, 2011

  Actual Average Record
Temperature  
Mean Temperature 62 °F 56 °F  
Max Temperature 78 °F 70 °F 90 °F (1942)
Min Temperature 45 °F 43 °F 17 °F (1985)
Degree Days  
Heating Degree Days 4    
Month to date heating degree days  
Cooling Degree Days 0    
Month to date cooling degree days  
Growing Degree Days 12 (Base 50)    
Moisture  
Dew Point 29 °F    
Average Humidity 33    
Maximum Humidity 47    
Minimum Humidity 19    
Precipitation  
Precipitation 0.00 in 0.04 in 0.69 in (1945)
Month to date precipitation 1.16  
Year to date precipitation 14.65  
Sea Level Pressure  
Sea Level Pressure 30.16 in    
Wind  
Wind Speed 13 mph (SSE)    
Max Wind Speed 23 mph    
Max Gust Speed 30 mph    
Visibility 10 miles    
Events      
T = Trace of Precipitation, MM = Missing Value Source: NWS Daily Summary

Daily Weather History Graph

Daily Weather History Graph

Search for Another Location

Airport or City:

Trip Planner

Search our weather history database for the weather conditions in past years. The results will help you decide how hot, cold, wet, or windy it might be!

Date:

Astronomy

Sep. 30, 2011 Rise Set
Actual Time 6:48 AM MDT 6:37 PM MDT
Civil Twilight 6:20 AM MDT 7:04 PM MDT
Nautical Twilight 5:49 AM MDT 7:35 PM MDT
Astronomical Twilight 5:17 AM MDT 8:07 PM MDT
Moon 10:49 AM MDT (9/30) 8:40 PM MDT (9/30)
Length of Visible Light 12h 43m
Length of Day
11h 49m
Waxing Crescent, 15% of the Moon is Illuminated
Sep 30
Waxing Crescent
Oct 3
First Quarter
Oct 11
Full
Oct 19
Last Quarter
Oct 26
New

Hourly Weather History & Observations

Time (MDT) Temp. Windchill Dew Point Humidity Pressure Visibility Wind Dir Wind Speed Gust Speed Precip Events Conditions
12:53 AM 48.0 °F - 28.0 °F 46% 30.32 in 10.0 mi SSE 9.2 mph - N/A   Clear
1:53 AM 48.0 °F - 26.1 °F 42% 30.32 in 10.0 mi SSE 12.7 mph - N/A   Clear
2:53 AM 46.0 °F 39.9 °F 27.0 °F 47% 30.30 in 10.0 mi SSE 13.8 mph - N/A   Clear
3:53 AM 46.0 °F 40.2 °F 26.1 °F 46% 30.29 in 10.0 mi SSE 12.7 mph - N/A   Clear
4:53 AM 46.0 °F 39.6 °F 25.0 °F 44% 30.28 in 10.0 mi SSE 15.0 mph - N/A   Clear
5:53 AM 45.0 °F 38.9 °F 24.1 °F 44% 30.28 in 10.0 mi SSE 12.7 mph - N/A   Clear
6:53 AM 45.0 °F 38.5 °F 24.1 °F 44% 30.29 in 10.0 mi SSE 13.8 mph - N/A   Clear
7:53 AM 48.0 °F - 26.1 °F 42% 30.28 in 10.0 mi SSE 11.5 mph - N/A   Clear
8:53 AM 54.0 °F - 27.0 °F 35% 30.25 in 10.0 mi South 19.6 mph 28.8 mph N/A   Clear
9:53 AM 60.1 °F - 27.0 °F 28% 30.22 in 10.0 mi South 23.0 mph 29.9 mph N/A   Clear
10:53 AM 66.0 °F - 28.9 °F 25% 30.19 in 10.0 mi South 15.0 mph - N/A   Clear
12:53 PM 73.0 °F - 32.0 °F 22% 30.12 in 10.0 mi South 11.5 mph 18.4 mph N/A   Clear
1:53 PM 75.9 °F - 33.1 °F 21% 30.08 in 10.0 mi SSW 11.5 mph - N/A   Clear
2:53 PM 77.0 °F - 33.1 °F 20% 30.05 in 10.0 mi South 11.5 mph 23.0 mph N/A   Clear
3:53 PM 78.1 °F - 33.1 °F 19% 30.04 in 10.0 mi SSE 13.8 mph 21.9 mph N/A   Clear
4:53 PM 77.0 °F - 32.0 °F 19% 30.02 in 10.0 mi South 12.7 mph - N/A   Clear
5:53 PM 73.9 °F - 32.0 °F 21% 30.02 in 10.0 mi SSE 15.0 mph - N/A   Clear
6:53 PM 66.9 °F - 30.9 °F 26% 30.05 in 10.0 mi SSE 10.4 mph - N/A   Clear
7:53 PM 62.1 °F - 30.9 °F 31% 30.07 in 10.0 mi SSE 10.4 mph - N/A   Clear
8:53 PM 61.0 °F - 30.9 °F 32% 30.07 in 10.0 mi South 13.8 mph - N/A   Clear
9:53 PM 57.9 °F - 30.0 °F 35% 30.08 in 10.0 mi South 13.8 mph - N/A   Clear
10:53 PM 55.9 °F - 30.0 °F 37% 30.06 in 10.0 mi South 11.5 mph - N/A   Clear
11:53 PM 55.9 °F - 30.0 °F 37% 30.04 in 10.0 mi South 11.5 mph - N/A   Clear